Starlink 3338

operational
NORAD ID: 50812 Int'l Des: 2022-001 Owner: SPXS Country: US Constellation: starlink
LEOCIRCULAR

About Starlink 3338

Description loading...

Live Position

Loading 3D Globe...

Upcoming Passes

Altitude History

Altitude vs Time

uPlot chart will show altitude changes over time

Two-Line Element Set

1 50812U 22001K 25346.86292898 -.00000002 00000-0 17943-4 0 9994
2 50812 53.2166 189.0082 0001360 96.0238 264.0909 15.08831706217433
Epoch: Dec 12, 2025 • Age: 27 hours

Current Status

Altitude 558.2 km
Velocity 7.58 km/s
Sub-Earth Point -50.75°S, 2.38°W
Launch Date Jan 6, 2022
Age 3.9 years
Type internet

Technical Details

Classification Payload
Mass 297.00 kg
Dry Mass 275.00 kg
Total Mass 297.00 kg
Length 0.20 m
Diameter 2.80 m
Span 9.00 m
Shape Box + pan
Manufacturer SPXS
Bus Type Starlink
Phase Status In Orbit
Owner/State SPXS/US

Large Constellations

Loading constellations...